This is the latest recevied weather packets stored in our database for station/object K0QED. If no packets are shown the sender has not sent any weather packets the latest 10 day(s).
| Time | Temp. | Humidity | Pressure | Rain* | Wind** | Luminosity | Snow |
|---|---|---|---|---|---|---|---|
| 1777656862 | 3.89° C | 68% | 1023.6 hPa | 1.27 mm | - | 193 W/m² | - |
| 1777656557 | 4.44° C | 68% | 1023.5 hPa | 1.78 mm | - | 188 W/m² | - |
| 1777656253 | 5° C | 65% | 1023.7 hPa | 3.05 mm | - | 212 W/m² | - |
| 1777655948 | 5.56° C | 70% | 1023.4 hPa | 4.32 mm | - | 356 W/m² | - |
| 1777655645 | 6.11° C | 69% | 1023.4 hPa | 6.1 mm | - | 955 W/m² | - |
| 1777655341 | 5.56° C | 68% | 1023.5 hPa | 4.83 mm | - | 961 W/m² | - |
| 1777655038 | 6.11° C | 68% | 1023.2 hPa | 4.83 mm | - | 902 W/m² | - |
| 1777654736 | 5.56° C | 66% | 1023.4 hPa | 4.83 mm | - | 920 W/m² | - |
| 1777654434 | 5° C | 65% | 1023.2 hPa | 4.32 mm | - | 305 W/m² | - |
| 1777654131 | 4.44° C | 71% | 1023.6 hPa | 10.16 mm | - | 1011 W/m² | - |
| 1777653829 | 5.56° C | 61% | 1023.2 hPa | 8.89 mm | - | 527 W/m² | - |
| 1777653525 | 5.56° C | 59% | 1023.5 hPa | 0 mm | - | 1097 W/m² | - |
| 1777653221 | 5° C | 68% | 1023.5 hPa | 0 mm | - | 897 W/m² | - |
| 1777652919 | 5° C | 64% | 1023.5 hPa | 0 mm | - | 167 W/m² | - |
| 1777652615 | 5° C | 68% | 1023.5 hPa | 0 mm | - | 598 W/m² | - |
| 1777652312 | 5° C | 66% | 1023.2 hPa | 0 mm | - | 541 W/m² | - |
| 1777652008 | 5° C | 72% | 1023.4 hPa | 0 mm | - | 521 W/m² | - |
| 1777651705 | 4.44° C | 73% | 1023.5 hPa | 0 mm | - | 448 W/m² | - |
| 1777651402 | 3.89° C | 72% | 1023.1 hPa | 0 mm | - | 411 W/m² | - |
| 1777651100 | 3.33° C | 71% | 1023.4 hPa | 0 mm | - | 231 W/m² | - |
| 1777650796 | 3.33° C | 80% | 1023.5 hPa | 0 mm | - | 51 W/m² | - |
| 1777650493 | 3.33° C | 82% | 1023.5 hPa | 0 mm | - | 112 W/m² | - |
| 1777650190 | 2.78° C | 85% | 1023.4 hPa | 0 mm | - | 39 W/m² | - |
| 1777649888 | 2.78° C | 89% | 1023.1 hPa | 0 mm | - | 40 W/m² | - |
| 1777649585 | 2.22° C | 92% | 1023.2 hPa | 0 mm | - | 35 W/m² | - |
* Rain latest hour (hover to see other rain measurements)
** Current wind speed in m/s (hover to see current wind gust speed)